When you browse on this site, cookies collect data to enhance your experience and personalize the content and advertising you see.
Visit our Privacy Policy to learn more. By continuing to use the site, you agree to this use of cookies and data.
  • In Portugal
  • List of Countries
  • For 7 days
  • Water Temperature
  • Weather Map
  • Weather Widgets
  • user-avatar
    Login

    Hourly Weather Ordino

    Today, 24 October, Thursday

    Time Temperature Precipitation Wind Pressure Humidity
    00:00 +4°C° 0 mm 1 mps 626 mmHg 92%
    01:00 +3°C° 0 mm 1 mps 626 mmHg 90%
    02:00 +3°C° 0 mm 1 mps 626 mmHg 87%
    03:00 +3°C° 0 mm 1 mps 627 mmHg 85%
    04:00 +3°C° 0 mm 1 mps 627 mmHg 83%
    05:00 +3°C° 0 mm 1 mps 627 mmHg 82%
    06:00 +3°C° 0 mm 1 mps 627 mmHg 80%
    07:00 +4°C° 0 mm 1 mps 629 mmHg 76%
    08:00 +6°C° 0 mm 1 mps 630 mmHg 72%
    09:00 +7°C° 0 mm 0 mps 631 mmHg 68%
    10:00 +9°C° 0 mm 1 mps 631 mmHg 65%
    11:00 +10°C° 0 mm 1 mps 632 mmHg 63%
    12:00 +11°C° 0 mm 1 mps 632 mmHg 61%
    13:00 +11°C° 0 mm 1 mps 632 mmHg 63%
    14:00 +10°C° 0 mm 1 mps 632 mmHg 65%
    15:00 +10°C° 0 mm 1 mps 632 mmHg 67%
    16:00 +9°C° 0 mm 1 mps 632 mmHg 74%
    17:00 +8°C° 0 mm 1 mps 632 mmHg 82%
    18:00 +6°C° 0 mm 1 mps 632 mmHg 89%
    19:00 +6°C° 0.1 mm 1 mps 633 mmHg 90%
    20:00 +5°C° 0.1 mm 2 mps 633 mmHg 91%
    21:00 +5°C° 0.1 mm 2 mps 633 mmHg 91%
    22:00 +5°C° 0 mm 2 mps 633 mmHg 91%
    23:00 +5°C° 0 mm 2 mps 634 mmHg 91%

    Tomorrow, 25 October, Friday

    Time Temperature Precipitation Wind Pressure Humidity
    00:00 +5°C° 0 mm 2 mps 634 mmHg 91%
    01:00 +5°C° 0 mm 2 mps 634 mmHg 91%
    02:00 +5°C° 0 mm 2 mps 634 mmHg 92%
    03:00 +5°C° 0 mm 2 mps 634 mmHg 92%
    04:00 +5°C° 0 mm 2 mps 634 mmHg 92%
    05:00 +5°C° 0 mm 2 mps 634 mmHg 92%
    06:00 +5°C° 0 mm 2 mps 634 mmHg 92%
    07:00 +6°C° 0 mm 2 mps 635 mmHg 85%
    08:00 +8°C° 0 mm 2 mps 636 mmHg 77%
    09:00 +10°C° 0 mm 2 mps 637 mmHg 70%
    10:00 +12°C° 0 mm 2 mps 637 mmHg 63%
    11:00 +14°C° 0 mm 2 mps 637 mmHg 57%
    12:00 +15°C° 0 mm 1 mps 638 mmHg 51%
    13:00 +15°C° 0 mm 1 mps 637 mmHg 53%
    14:00 +14°C° 0 mm 1 mps 637 mmHg 55%
    15:00 +14°C° 0 mm 1 mps 637 mmHg 57%
    16:00 +12°C° 0 mm 1 mps 636 mmHg 62%
    17:00 +10°C° 0 mm 1 mps 635 mmHg 67%
    18:00 +8°C° 0 mm 1 mps 634 mmHg 72%
    19:00 +8°C° 0 mm 1 mps 635 mmHg 67%
    20:00 +8°C° 0 mm 1 mps 635 mmHg 61%
    21:00 +8°C° 0 mm 1 mps 635 mmHg 56%
    22:00 +8°C° 0 mm 1 mps 635 mmHg 54%
    23:00 +8°C° 0 mm 1 mps 635 mmHg 52%

    Day after tomorrow, 26 October, Saturday

    Time Temperature Precipitation Wind Pressure Humidity
    00:00 +8°C° 0 mm 1 mps 634 mmHg 50%
    01:00 +8°C° 0 mm 1 mps 634 mmHg 49%
    02:00 +8°C° 0 mm 1 mps 634 mmHg 49%
    03:00 +8°C° 0 mm 1 mps 634 mmHg 48%
    04:00 +8°C° 0 mm 1 mps 634 mmHg 48%
    05:00 +8°C° 0 mm 1 mps 634 mmHg 49%
    06:00 +8°C° 0 mm 1 mps 634 mmHg 49%
    07:00 +10°C° 0 mm 1 mps 635 mmHg 49%
    08:00 +12°C° 0 mm 1 mps 636 mmHg 48%
    09:00 +13°C° 0 mm 0 mps 637 mmHg 48%
    10:00 +15°C° 0 mm 1 mps 637 mmHg 46%
    11:00 +16°C° 0 mm 1 mps 637 mmHg 45%
    12:00 +18°C° 0 mm 1 mps 638 mmHg 44%
    13:00 +18°C° 0 mm 1 mps 637 mmHg 48%
    14:00 +16°C° 0 mm 1 mps 637 mmHg 52%
    15:00 +16°C° 0 mm 1 mps 636 mmHg 57%
    16:00 +14°C° 0 mm 1 mps 636 mmHg 66%
    17:00 +11°C° 0 mm 1 mps 635 mmHg 75%
    18:00 +9°C° 0 mm 1 mps 634 mmHg 84%
    19:00 +9°C° 0 mm 1 mps 634 mmHg 84%
    20:00 +9°C° 0 mm 1 mps 634 mmHg 83%
    21:00 +9°C° 0 mm 1 mps 635 mmHg 83%
    22:00 +8°C° 0 mm 1 mps 634 mmHg 83%
    23:00 +8°C° 0 mm 1 mps 634 mmHg 83%

    , 27 October, Sunday

    Time Temperature Precipitation Wind Pressure Humidity
    00:00 +8°C° 0 mm 1 mps 634 mmHg 84%
    01:00 +8°C° 0 mm 1 mps 634 mmHg 84%
    02:00 +8°C° 0 mm 1 mps 634 mmHg 84%
    03:00 +7°C° 0 mm 1 mps 634 mmHg 84%
    04:00 +7°C° 0 mm 1 mps 634 mmHg 83%
    05:00 +7°C° 0 mm 1 mps 633 mmHg 82%
    06:00 +7°C° 0 mm 1 mps 633 mmHg 81%
    07:00 +9°C° 0 mm 1 mps 634 mmHg 75%
    08:00 +11°C° 0 mm 1 mps 635 mmHg 69%
    09:00 +13°C° 0 mm 1 mps 636 mmHg 62%
    10:00 +14°C° 0 mm 1 mps 636 mmHg 58%
    11:00 +15°C° 0 mm 1 mps 636 mmHg 54%
    12:00 +16°C° 0 mm 1 mps 637 mmHg 50%
    13:00 +16°C° 0 mm 1 mps 636 mmHg 53%
    14:00 +16°C° 0 mm 1 mps 636 mmHg 57%
    15:00 +15°C° 0 mm 1 mps 636 mmHg 60%
    16:00 +13°C° 0 mm 1 mps 635 mmHg 69%
    17:00 +11°C° 0 mm 1 mps 634 mmHg 78%
    18:00 +9°C° 0 mm 1 mps 633 mmHg 87%
    19:00 +9°C° 0 mm 1 mps 633 mmHg 86%
    20:00 +9°C° 0 mm 1 mps 633 mmHg 85%
    21:00 +8°C° 0 mm 1 mps 634 mmHg 84%
    22:00 +8°C° 0 mm 1 mps 633 mmHg 82%
    23:00 +8°C° 0 mm 1 mps 633 mmHg 81%

    27 October, Sunday

    Time Temperature Precipitation Wind Pressure Humidity
    00:00 +8°C° 0 mm 1 mps 634 mmHg 84%
    01:00 +8°C° 0 mm 1 mps 634 mmHg 84%
    02:00 +8°C° 0 mm 1 mps 634 mmHg 84%
    03:00 +7°C° 0 mm 1 mps 634 mmHg 84%
    04:00 +7°C° 0 mm 1 mps 634 mmHg 83%
    05:00 +7°C° 0 mm 1 mps 633 mmHg 82%
    06:00 +7°C° 0 mm 1 mps 633 mmHg 81%
    07:00 +9°C° 0 mm 1 mps 634 mmHg 75%
    08:00 +11°C° 0 mm 1 mps 635 mmHg 69%
    09:00 +13°C° 0 mm 1 mps 636 mmHg 62%
    10:00 +14°C° 0 mm 1 mps 636 mmHg 58%
    11:00 +15°C° 0 mm 1 mps 636 mmHg 54%
    12:00 +16°C° 0 mm 1 mps 637 mmHg 50%
    13:00 +16°C° 0 mm 1 mps 636 mmHg 53%
    14:00 +16°C° 0 mm 1 mps 636 mmHg 57%
    15:00 +15°C° 0 mm 1 mps 636 mmHg 60%
    16:00 +13°C° 0 mm 1 mps 635 mmHg 69%
    17:00 +11°C° 0 mm 1 mps 634 mmHg 78%
    18:00 +9°C° 0 mm 1 mps 633 mmHg 87%
    19:00 +9°C° 0 mm 1 mps 633 mmHg 86%
    20:00 +9°C° 0 mm 1 mps 633 mmHg 85%
    21:00 +8°C° 0 mm 1 mps 634 mmHg 84%
    22:00 +8°C° 0 mm 1 mps 633 mmHg 82%
    23:00 +8°C° 0 mm 1 mps 633 mmHg 81%

    28 October, Monday

    Time Temperature Precipitation Wind Pressure Humidity
    00:00 +8°C° 0 mm 1 mps 633 mmHg 79%
    01:00 +8°C° 0 mm 1 mps 633 mmHg 78%
    02:00 +8°C° 0 mm 1 mps 632 mmHg 77%
    03:00 +8°C° 0 mm 1 mps 632 mmHg 76%
    04:00 +8°C° 0 mm 1 mps 632 mmHg 71%
    05:00 +8°C° 0 mm 1 mps 632 mmHg 67%
    06:00 +9°C° 0 mm 1 mps 632 mmHg 62%
    07:00 +10°C° 0 mm 1 mps 633 mmHg 58%
    08:00 +12°C° 0 mm 1 mps 634 mmHg 54%
    09:00 +12°C° 0 mm 0 mps 634 mmHg 50%
    10:00 +14°C° 0 mm 1 mps 634 mmHg 47%
    11:00 +15°C° 0 mm 1 mps 635 mmHg 44%
    12:00 +16°C° 0 mm 1 mps 635 mmHg 41%
    13:00 +16°C° 0 mm 1 mps 635 mmHg 46%
    14:00 +15°C° 0 mm 1 mps 634 mmHg 51%
    15:00 +14°C° 0 mm 0 mps 634 mmHg 56%
    16:00 +13°C° 0 mm 1 mps 633 mmHg 59%
    17:00 +12°C° 0 mm 1 mps 633 mmHg 62%
    18:00 +11°C° 0 mm 1 mps 633 mmHg 65%
    19:00 +10°C° 0 mm 1 mps 633 mmHg 65%
    20:00 +10°C° 0 mm 1 mps 633 mmHg 65%
    21:00 +10°C° 0 mm 1 mps 633 mmHg 65%
    22:00 +9°C° 0 mm 1 mps 632 mmHg 67%
    23:00 +9°C° 0 mm 1 mps 632 mmHg 68%

    29 October, Tuesday

    Time Temperature Precipitation Wind Pressure Humidity
    00:00 +9°C° 0 mm 1 mps 632 mmHg 70%
    01:00 +9°C° 0 mm 1 mps 632 mmHg 71%
    02:00 +8°C° 0 mm 1 mps 632 mmHg 71%
    03:00 +8°C° 0 mm 1 mps 632 mmHg 72%
    04:00 +8°C° 0 mm 1 mps 632 mmHg 73%
    05:00 +8°C° 0 mm 1 mps 632 mmHg 73%
    06:00 +8°C° 0 mm 1 mps 632 mmHg 74%
    07:00 +10°C° 0 mm 1 mps 633 mmHg 68%
    08:00 +12°C° 0 mm 1 mps 634 mmHg 63%
    09:00 +14°C° 0 mm 1 mps 634 mmHg 58%
    10:00 +15°C° 0 mm 1 mps 635 mmHg 55%
    11:00 +16°C° 0 mm 1 mps 635 mmHg 52%
    12:00 +18°C° 0 mm 1 mps 635 mmHg 50%
    13:00 +16°C° 0.2 mm 1 mps 635 mmHg 55%
    14:00 +15°C° 0.2 mm 2 mps 634 mmHg 60%
    15:00 +14°C° 0.2 mm 2 mps 634 mmHg 65%
    16:00 +13°C° 0.1 mm 1 mps 634 mmHg 73%
    17:00 +11°C° 0.1 mm 1 mps 633 mmHg 81%
    18:00 +9°C° 0.1 mm 1 mps 633 mmHg 90%
    19:00 +9°C° 0 mm 1 mps 633 mmHg 90%
    20:00 +8°C° 0 mm 1 mps 633 mmHg 90%
    21:00 +8°C° 0 mm 1 mps 633 mmHg 90%
    22:00 +8°C° 0 mm 1 mps 633 mmHg 88%
    23:00 +8°C° 0 mm 1 mps 633 mmHg 86%
    Show more